STARLINK-11254, 60731

Orbit data source: Space-Track

STARLINK-11254, 60731 is a payload satellite owned by SpaceX/Seattle (US) in LEO that was launched on Wed, 28 Aug 2024 UTC via an FALCON 9 launch vehicle from the Air Force Eastern Test Range (AFETR). Payload-class satellites include a variety of spacecraft equipped with specific instruments for various scientific and technological missions. These include communications satellites like Starlink; space stations such as the ISS; scientific satellites like the Hubble; Earth observation satellites from companies like Planet Labs, Umbra, and HawkEye 360; GPS; miniature CubeSats for education and research; and military/defense satellites.

Loading next visibility...
Identifier
60731, 2024-152M
Orbit
LEO
Country
Flag of USUS
Related business
Manufacturer
SpaceX/Seattle
Mission
Operational Commercial Communications
Bus & Motor
STARLINK V2MD, Unknown motor
Mass
960 kg wet, ~910 kg dry
Launch date (UTC)
2024-08-28 (2 years ago)
Launch vehicle
FALCON 9
Launch site
Air Force Eastern Test Range (AFETR)
Object type
Payload
Rocket body
Debris
Shape & HBR
Box + 2 Pan, 18.1 m
Radar Cross Section
36.964 m², Large (>1 m²)

Expand to show TLE details & history
Last TLE update: 7 hours ago

TLE from 7 hours ago
0 STARLINK-11254
1 60731U 24152M   26127.86655807  .00001318  00000-0  15735-4 0  9992
2 60731  53.1595 184.2256 0000922  87.5838 272.5286 15.69710755 98147
Epoch: 2026-05-07T20:47Z
TLE epoch observation values (Epoch: 2026-05-07T20:47:50.617Z)
Latitude
0.00003°
Longitude
6.55817°
Altitude
360.612 km
Speed
7.694 km/s
True Right ascension
12h 16m 54s
True Declination
0° 00' 00"
Sunlit
Object was in full shadow at epoch
Visualization orbit readout
Latitude
Unknown
Longitude
Unknown
Altitude
Unknown
Speed
Unknown
Apparent Right ascension
Unknown
Apparent Declination
Unknown
Sunlit
N/A
Visualization observer readout
Local Sidereal Time
11:41:18
Azimuth
Unknown
Elevation
Unknown
Doppler factor
Unknown
Orbital elements
Apogee altitude
360.607 km
Perigee altitude
359.364 km
Semi-major axis
6,738.122 km
Eccentricity
0.00009
Inclination
53.1595°
RAAN
184.2256°
Arg. of periapsis
87.5838°
True anomaly
272.51804°
Mean anomaly
272.5286°
Eccentric anomaly
272.52332°
Mean motion
3.92405 °/min
Orbital period
91.74 mins
BSTAR
0.000015735
Loading maneuver chart data...
Computing Atmospheric mass density...
Loading historical data...
Loading historical data...
Loading historical data...
Loading historical data...
Loading historical data...
Loading historical data...
Loading historical data...

Documentation

Showing up to 5 results
|